[[{"header":{"parameterUnit":"m.s-1","parameterCategory":2,"la1":30.2992,"la2":30.254,"lo1":-89.0895,"lo2":-89.0443,"dy":0.0025,"dx":0.0025,"nx":19,"ny":19,"refTime":"2026-03-23T21:00:00:Z","depth":"0","parameterNumber":2,"parameterNumberName":"U-component_of_CURRENTS"},"data":[0,0,0,0.329,0.3293,0.3409,0.341,0.3471,0.3472,0,0,0,0,0,0,0,0,0,0,0,0.3253,0.3254,0.329,0.3293,0.3409,0.341,0.3471,0.3472,0,0,0,0,0,0,0,0,0,0,0,0.3253,0.3254,0.3255,0.3293,0.3409,0.341,0.3471,0.3403,0,0,0,0,0,0,0,0,0,0,0.3301,0.3285,0.3254,0.3255,0.3294,0.3409,0.341,0.3401,0.3408,0.3395,0,0.3427,0,0.3451,0.3474,0.3474,0,0,0,0.3287,0.328,0.3309,0.3256,0.3295,0.3409,0.3355,0.3405,0.3413,0.3404,0.3428,0.3431,0.3452,0.3475,0.3475,0.3608,0.3609,0,0,0.3281,0.3272,0.3304,0.3314,0.3342,0.3351,0.3359,0.3411,0.3424,0.3428,0.3433,0.3453,0.3475,0.3475,0.3607,0.3608,0,0,0,0.3266,0.3268,0.3297,0.331,0.3339,0.3355,0.3363,0.3422,0.3432,0.3434,0.3453,0.3475,0.3476,0.3605,0.3607,0.3668,0,0,0,0.3262,0.326,0.3295,0.329,0.3339,0.3395,0.3373,0.3429,0.3436,0.3453,0.3475,0.3476,0.3604,0.3606,0.3664,0.3628,0,0,0,0.3245,0.3258,0.3276,0.329,0.3342,0.3395,0.3409,0.3431,0.3447,0.3474,0.3476,0.3603,0.3606,0.366,0.3624,0.3709,0,0,0,0.3224,0.3309,0.3276,0.3378,0.3342,0.3436,0.3409,0.3462,0.3489,0.3475,0.3604,0.3607,0.3659,0.3621,0.3706,0.3648,0.366,0,0,0.3327,0.3321,0.3383,0.3358,0.3445,0.3418,0.3516,0.3524,0.3529,0.3576,0.358,0.3665,0.3623,0.3708,0.3808,0.3814,0,0,0,0.3414,0.3441,0.3472,0.3507,0.3548,0.3556,0.3572,0.3592,0.3653,0.3562,0.3705,0.3675,0.3728,0.3688,0.3694,0.3467,0.362,0.362,0.3619,0.3494,0.3509,0.3578,0.3592,0.3632,0.3651,0.3689,0.3716,0.3717,0.3765,0.3758,0.3896,0.3857,0.3861,0.3629,0.3828,0.3828,0.3828,0.3828,0.3589,0.3617,0.3606,0.367,0.3658,0.3707,0.377,0.3787,0.3884,0.385,0.3901,0.3791,0.387,0.3621,0.3833,0.3832,0.3832,0.3831,0.3831,0.3612,0.3623,0.3641,0.3663,0.368,0.3709,0.3769,0.3836,0.3906,0.3959,0.3952,0.3949,0.37,0.4018,0.4018,0.4018,0.4019,0.4019,0.4019,0.3614,0.3632,0.3635,0.3654,0.3655,0.3685,0.3769,0.3843,0.3945,0.3978,0.3979,0.3717,0.3953,0.3911,0.4023,0.4022,0.4022,0.4021,0.4021,0.3641,0.3623,0.3632,0.3629,0.3627,0.3596,0.3722,0.3824,0.3951,0.3986,0.3737,0.4016,0.3984,0.3978,0.3938,0.4049,0.4049,0.4049,0.4049,0.3628,0.363,0.3588,0.3558,0.3566,0.3547,0.3522,0.3598,0.3651,0.3596,0.3621,0.353,0.3539,0.3474,0.3479,0.3426,0.3406,0.3405,0.3404,0.3609,0.3606,0.3542,0.35,0.3498,0.3461,0.3287,0.3161,0.3259,0.3355,0.3317,0.3344,0.3188,0.322,0.3099,0.3125,0.3033,0,0]},{"header":{"parameterUnit":"m.s-1","parameterCategory":2,"la1":30.2992,"la2":30.254,"lo1":-89.0895,"lo2":-89.0443,"dy":0.0025,"dx":0.0025,"nx":19,"ny":19,"refTime":"2026-03-23T21:00:00:Z","depth":"0","parameterNumber":3,"parameterNumberName":"V-component_of_CURRENTS"},"data":[0,0,0,-0.1074,-0.1079,-0.1312,-0.1312,-0.1459,-0.146,0,0,0,0,0,0,0,0,0,0,0,-0.0985,-0.0986,-0.1074,-0.108,-0.1311,-0.1313,-0.1459,-0.146,0,0,0,0,0,0,0,0,0,0,0,-0.0985,-0.0986,-0.0988,-0.108,-0.1311,-0.1313,-0.1459,-0.1322,0,0,0,0,0,0,0,0,0,0,-0.1116,-0.1064,-0.0986,-0.0988,-0.1082,-0.1311,-0.1313,-0.1317,-0.1331,-0.1309,0,-0.1345,0,-0.1405,-0.1466,-0.1466,0,0,0,-0.1085,-0.1053,-0.1106,-0.0988,-0.1084,-0.1311,-0.1208,-0.1326,-0.1341,-0.1326,-0.1348,-0.1355,-0.1407,-0.1467,-0.1467,-0.1367,-0.1365,0,0,-0.1072,-0.1036,-0.1096,-0.1115,-0.1141,-0.1201,-0.1215,-0.1337,-0.1352,-0.1348,-0.1359,-0.141,-0.1467,-0.1468,-0.1368,-0.1366,0,0,0,-0.1032,-0.1027,-0.1081,-0.1107,-0.1161,-0.1207,-0.1224,-0.1347,-0.1363,-0.1361,-0.1411,-0.1468,-0.1469,-0.137,-0.1368,-0.118,0,0,0,-0.1024,-0.1003,-0.1075,-0.1057,-0.116,-0.1281,-0.1231,-0.1354,-0.1371,-0.141,-0.1468,-0.147,-0.1372,-0.1369,-0.1189,-0.1053,0,0,0,-0.0975,-0.0999,-0.1023,-0.1054,-0.1153,-0.1281,-0.1306,-0.136,-0.14,-0.1466,-0.147,-0.1374,-0.137,-0.1198,-0.1069,-0.0839,0,0,0,-0.0934,-0.0997,-0.1022,-0.1098,-0.1151,-0.1238,-0.1306,-0.1388,-0.1441,-0.1468,-0.1372,-0.1368,-0.12,-0.1079,-0.0851,-0.0679,-0.0611,0,0,-0.0992,-0.1004,-0.1045,-0.1073,-0.1121,-0.1206,-0.1194,-0.1297,-0.1354,-0.1328,-0.1328,-0.1186,-0.107,-0.0841,-0.0438,-0.0377,0,0,0,-0.1048,-0.106,-0.1087,-0.1119,-0.1178,-0.1101,-0.1236,-0.1195,-0.115,-0.1367,-0.1154,-0.1084,-0.0946,-0.0868,-0.0818,-0.0949,-0.1349,-0.1349,-0.1349,-0.1055,-0.1066,-0.107,-0.1062,-0.1062,-0.1044,-0.0951,-0.0897,-0.1055,-0.0949,-0.091,-0.0572,-0.0488,-0.0448,-0.0586,-0.0914,-0.0913,-0.0913,-0.0912,-0.1042,-0.1008,-0.0959,-0.0951,-0.0837,-0.0788,-0.0631,-0.0642,-0.0453,-0.0641,-0.0518,-0.0647,-0.0383,-0.055,-0.09,-0.0902,-0.0904,-0.0905,-0.0906,-0.0993,-0.0958,-0.0938,-0.0798,-0.0637,-0.0561,-0.0256,-0.0241,-0.0223,-0.011,-0.0036,-0.0039,-0.0198,-0.0083,-0.0081,-0.008,-0.0078,-0.0077,-0.0076,-0.091,-0.0884,-0.072,-0.0617,-0.0467,-0.0252,-0.0027,0.0151,0.0298,0.0254,0.0255,-0.0065,-0.0317,-0.0364,-0.0051,-0.0055,-0.0058,-0.0061,-0.0062,-0.0789,-0.0741,-0.0489,-0.0326,-0.0002,0.0255,0.0399,0.0745,0.0887,0.1009,0.0566,0.0478,0.0461,0.0419,0.0391,0.0883,0.0883,0.0883,0.0883,-0.0645,-0.063,-0.0198,0.0114,0.0416,0.0547,0.0999,0.1189,0.1137,0.1035,0.0878,0.0656,0.0624,0.0597,0.0552,0.0517,0.103,0.103,0.103,-0.0456,-0.0347,-0.0001,0.0273,0.0606,0.0866,0.1214,0.1457,0.129,0.101,0.0675,0.0669,0.0297,0.0256,0.0157,0.0104,0.0024,0,0]}],[{"header":{"parameterUnit":"m.s-1","parameterCategory":2,"la1":30.2992,"la2":30.254,"lo1":-89.0895,"lo2":-89.0443,"dy":0.0025,"dx":0.0025,"nx":19,"ny":19,"refTime":"2026-03-23T21:00:00:Z","depth":"2","parameterNumber":2,"parameterNumberName":"U-component_of_CURRENTS"},"data":[0,0,0,0.2123,0.2123,0.224,0.2241,0.2652,0.2656,0,0,0,0,0,0,0,0,0,0,0,0.2088,0.2088,0.2123,0.2123,0.224,0.2241,0.2652,0.2656,0,0,0,0,0,0,0,0,0,0,0,0.2089,0.2088,0.2087,0.2124,0.224,0.2242,0.2651,0.2514,0,0,0,0,0,0,0,0,0,0,0.2375,0.232,0.2088,0.2087,0.2124,0.2239,0.2242,0.2505,0.2522,0.2654,0,0.2622,0,0.2623,0.2683,0.2685,0,0,0,0.219,0.2305,0.2283,0.2087,0.2124,0.2239,0.2206,0.2513,0.2533,0.2678,0.2627,0.2641,0.263,0.2686,0.2688,0.314,0.3142,0,0,0.2183,0.2185,0.2268,0.2293,0.2097,0.2202,0.2209,0.2523,0.2558,0.2629,0.2649,0.2637,0.2689,0.2692,0.3138,0.314,0,0,0,0.212,0.218,0.2149,0.2279,0.2264,0.2204,0.2212,0.2545,0.2516,0.2653,0.2642,0.2691,0.2696,0.3136,0.3139,0.3153,0,0,0,0.212,0.2137,0.2145,0.2158,0.2255,0.2379,0.2227,0.2495,0.2529,0.264,0.2691,0.27,0.3134,0.3138,0.3148,0.3116,0,0,0,0.2093,0.2138,0.2118,0.2156,0.2169,0.2371,0.2367,0.2502,0.2522,0.2685,0.2701,0.3133,0.3137,0.3144,0.3111,0.3162,0,0,0,0.2139,0.2161,0.2118,0.2197,0.2166,0.2367,0.2364,0.2559,0.2708,0.2693,0.3134,0.3139,0.3142,0.3108,0.3159,0.2932,0.2929,0,0,0.2202,0.217,0.2228,0.2192,0.2375,0.2359,0.2618,0.2776,0.2821,0.3056,0.3065,0.315,0.3111,0.3161,0.3192,0.318,0,0,0,0.2277,0.2306,0.2367,0.2451,0.2559,0.2641,0.2814,0.2858,0.3024,0.2909,0.3238,0.3214,0.3244,0.3104,0.3098,0.316,0.3159,0.3159,0.3158,0.2358,0.2426,0.257,0.2661,0.2799,0.2917,0.3008,0.3103,0.3188,0.3235,0.3292,0.3426,0.3283,0.3274,0.339,0.339,0.339,0.339,0.339,0.2493,0.2592,0.2703,0.286,0.2937,0.3122,0.3224,0.3224,0.3396,0.3372,0.3402,0.3208,0.3265,0.3393,0.3393,0.3392,0.3392,0.3392,0.3391,0.2563,0.2625,0.2705,0.2914,0.3039,0.3153,0.3253,0.3336,0.3383,0.3447,0.3329,0.3325,0.337,0.3489,0.3489,0.349,0.349,0.349,0.349,0.2606,0.2695,0.2759,0.2947,0.3018,0.3143,0.3235,0.331,0.3325,0.3322,0.332,0.3459,0.3456,0.3379,0.3492,0.3492,0.3491,0.3491,0.3491,0.2722,0.2662,0.2788,0.284,0.2966,0.2929,0.31,0.309,0.3196,0.3145,0.3256,0.3261,0.3226,0.323,0.3151,0.3198,0.3198,0.3198,0.3198,0.2698,0.2711,0.2758,0.2785,0.2831,0.2822,0.2634,0.2626,0.2776,0.28,0.2817,0.2727,0.2747,0.2682,0.2699,0.2608,0.2513,0.2512,0.2511,0.2702,0.2741,0.2725,0.2737,0.2722,0.2617,0.2253,0.2026,0.2186,0.2487,0.2723,0.3147,0.3058,0.3073,0.3008,0.3021,0.2889,0,0]},{"header":{"parameterUnit":"m.s-1","parameterCategory":2,"la1":30.2992,"la2":30.254,"lo1":-89.0895,"lo2":-89.0443,"dy":0.0025,"dx":0.0025,"nx":19,"ny":19,"refTime":"2026-03-23T21:00:00:Z","depth":"2","parameterNumber":3,"parameterNumberName":"V-component_of_CURRENTS"},"data":[0,0,0,0.0204,0.0204,0.0159,0.0159,0.0185,0.0186,0,0,0,0,0,0,0,0,0,0,0,0.0218,0.0218,0.0204,0.0204,0.0159,0.0159,0.0185,0.0186,0,0,0,0,0,0,0,0,0,0,0,0.0218,0.0218,0.0219,0.0204,0.016,0.0159,0.0185,0.0189,0,0,0,0,0,0,0,0,0,0,0.0219,0.0208,0.0218,0.0219,0.0204,0.016,0.0159,0.0188,0.0189,0.0241,0,0.0258,0,0.0244,0.0193,0.0194,0,0,0,0.0168,0.0207,0.0229,0.0219,0.0204,0.016,0.0169,0.0188,0.0189,0.0243,0.0258,0.0258,0.0244,0.0194,0.0195,0.0437,0.0439,0,0,0.017,0.0173,0.0228,0.023,0.0227,0.0171,0.0168,0.0187,0.0186,0.0258,0.0259,0.0245,0.0195,0.0196,0.0435,0.0438,0,0,0,0.0202,0.0175,0.0192,0.023,0.0227,0.0171,0.0168,0.0184,0.02,0.0259,0.0245,0.0195,0.0197,0.0433,0.0436,0.0547,0,0,0,0.0202,0.0196,0.0194,0.0189,0.0227,0.0188,0.0164,0.0198,0.02,0.0245,0.0195,0.0198,0.0431,0.0435,0.0539,0.0562,0,0,0,0.0214,0.0196,0.0209,0.0191,0.0191,0.0188,0.02,0.0196,0.0194,0.0194,0.0198,0.043,0.0434,0.0533,0.0552,0.0571,0,0,0,0.0192,0.0226,0.0209,0.0257,0.0192,0.0278,0.0199,0.02,0.0202,0.0196,0.0432,0.0436,0.053,0.0546,0.0566,0.0536,0.0557,0,0,0.0227,0.023,0.0266,0.0251,0.0386,0.0279,0.0428,0.0359,0.03,0.042,0.0424,0.0542,0.0552,0.057,0.0793,0.0805,0,0,0,0.0273,0.0326,0.0354,0.0431,0.0465,0.0537,0.049,0.0491,0.0514,0.0331,0.0602,0.0605,0.0611,0.0586,0.0598,0.0457,0.0456,0.0456,0.0456,0.0333,0.0401,0.0531,0.0636,0.068,0.0732,0.0741,0.0752,0.0692,0.0719,0.0741,0.0891,0.0873,0.0879,0.0806,0.0806,0.0807,0.0807,0.0807,0.0508,0.063,0.0713,0.0845,0.093,0.1019,0.1055,0.0988,0.0999,0.0937,0.0937,0.0762,0.0898,0.0817,0.0816,0.0814,0.0813,0.0812,0.0812,0.0609,0.0693,0.0762,0.0969,0.1101,0.1154,0.1205,0.1159,0.1091,0.1074,0.0998,0.0995,0.0887,0.1071,0.1072,0.1072,0.1072,0.1072,0.1073,0.0695,0.0799,0.0897,0.1088,0.114,0.1224,0.1257,0.1225,0.1183,0.1111,0.111,0.0979,0.097,0.0903,0.1077,0.1076,0.1075,0.1075,0.1075,0.0891,0.0855,0.0981,0.1046,0.1234,0.1345,0.1367,0.1338,0.1292,0.1265,0.1114,0.1112,0.1051,0.1041,0.0977,0.1159,0.1159,0.1159,0.1159,0.096,0.0984,0.1054,0.1132,0.13,0.1407,0.147,0.1396,0.1268,0.115,0.1151,0.1108,0.1104,0.1043,0.1032,0.0965,0.1145,0.1145,0.1145,0.1098,0.1048,0.1093,0.114,0.1324,0.1479,0.1507,0.1372,0.116,0.1144,0.1148,0.1158,0.1092,0.1088,0.0986,0.0972,0.0861,0,0]}],[{"header":{"parameterUnit":"m.s-1","parameterCategory":2,"la1":30.2992,"la2":30.254,"lo1":-89.0895,"lo2":-89.0443,"dy":0.0025,"dx":0.0025,"nx":19,"ny":19,"refTime":"2026-03-23T21:00:00:Z","depth":"4","parameterNumber":2,"parameterNumberName":"U-component_of_CURRENTS"},"data":[0,0,0,0.0755,0.0755,0.0803,0.0803,0.0909,0.091,0,0,0,0,0,0,0,0,0,0,0,0.0739,0.0739,0.0755,0.0755,0.0803,0.0803,0.0908,0.091,0,0,0,0,0,0,0,0,0,0,0,0.0739,0.0739,0.0739,0.0755,0.0803,0.0803,0.0908,0.0865,0,0,0,0,0,0,0,0,0,0,0.0815,0.0793,0.0739,0.0739,0.0755,0.0802,0.0803,0.0862,0.0868,0.0895,0,0.0892,0,0.0897,0.0916,0.0917,0,0,0,0.077,0.0789,0.0794,0.0739,0.0756,0.0802,0.0786,0.0865,0.0871,0.0902,0.0893,0.0897,0.0899,0.0917,0.0917,0.1175,0.1177,0,0,0.0768,0.0761,0.0789,0.0797,0.0755,0.0784,0.0787,0.0868,0.0875,0.0893,0.0899,0.0901,0.0918,0.0918,0.1173,0.1176,0,0,0,0.075,0.0759,0.0761,0.0793,0.0794,0.0785,0.0788,0.0872,0.0869,0.09,0.0902,0.0918,0.0919,0.1171,0.1174,0.1299,0,0,0,0.0749,0.0747,0.0759,0.0758,0.0792,0.0829,0.079,0.0864,0.0873,0.0902,0.0918,0.092,0.1169,0.1173,0.129,0.1296,0,0,0,0.0739,0.0747,0.0746,0.0757,0.077,0.0827,0.0831,0.0866,0.0874,0.0917,0.0921,0.1167,0.1172,0.1283,0.1285,0.1369,0,0,0,0.074,0.0699,0.0746,0.0724,0.0769,0.0826,0.083,0.0896,0.0938,0.0919,0.1169,0.1174,0.128,0.1279,0.1362,0.1091,0,0,0,0.0678,0.0692,0.0682,0.0723,0.0774,0.0821,0.0952,0.1014,0.1032,0.1142,0.1148,0.1293,0.1285,0.1367,0.1386,0,0,0,0,0.0657,0.0671,0.0684,0.074,0.0791,0.0931,0.1005,0.1092,0.1253,0.1076,0.1359,0.135,0.1397,0.1225,0.1198,0.1197,0.1197,0.1196,0.1196,0.0622,0.067,0.0704,0.079,0.0876,0.1052,0.118,0.1337,0.1336,0.1466,0.1503,0.1714,0.1545,0.1586,0.1587,0.1588,0.1588,0.1589,0.1589,0.0614,0.0657,0.0787,0.0837,0.1013,0.1186,0.1432,0.1509,0.172,0.1684,0.1726,0.1432,0.1603,0.16,0.1598,0.1596,0.1595,0.1594,0.1594,0.0638,0.0662,0.0724,0.0893,0.1096,0.1297,0.1563,0.1723,0.1825,0.1899,0.1724,0.1797,0.1725,0.1946,0.1947,0.1947,0.1948,0.1948,0.1948,0.0635,0.0703,0.0804,0.0945,0.1059,0.1292,0.1615,0.1746,0.1887,0.1819,0.1942,0.1833,0.1821,0.1748,0.1955,0.1954,0.1953,0.1953,0.1952,0.0669,0.0743,0.0855,0.0938,0.1114,0.1226,0.1511,0.1705,0.18,0.1789,0.1777,0.1783,0.1698,0.1689,0.1606,0.178,0.1777,0.1774,0,0.0717,0.0753,0.0919,0.1011,0.1091,0.1188,0.1301,0.1461,0.1601,0.1546,0.1772,0.1753,0.1757,0.1651,0.164,0.1537,0,0,0,0.0791,0.0813,0.0921,0.1007,0.1045,0.1152,0.133,0.136,0.1556,0.1592,0.1705,0.1723,0.1825,0.1977,0.1861,0.1847,0.1722,0,0]},{"header":{"parameterUnit":"m.s-1","parameterCategory":2,"la1":30.2992,"la2":30.254,"lo1":-89.0895,"lo2":-89.0443,"dy":0.0025,"dx":0.0025,"nx":19,"ny":19,"refTime":"2026-03-23T21:00:00:Z","depth":"4","parameterNumber":3,"parameterNumberName":"V-component_of_CURRENTS"},"data":[0,0,0,0.0466,0.0469,0.0568,0.0568,0.0571,0.057,0,0,0,0,0,0,0,0,0,0,0,0.0438,0.0439,0.0466,0.0469,0.0568,0.0568,0.0571,0.057,0,0,0,0,0,0,0,0,0,0,0,0.0437,0.0439,0.044,0.0469,0.0567,0.0568,0.0571,0.0526,0,0,0,0,0,0,0,0,0,0,0.0446,0.0436,0.0438,0.044,0.047,0.0567,0.0568,0.0526,0.0529,0.0491,0,0.052,0,0.0541,0.0568,0.0568,0,0,0,0.0466,0.0433,0.0461,0.044,0.0471,0.0567,0.0522,0.0529,0.0532,0.0495,0.052,0.0521,0.0541,0.0568,0.0568,0.051,0.0509,0,0,0.0461,0.0448,0.0459,0.0464,0.051,0.0519,0.0525,0.0532,0.0537,0.052,0.0522,0.0541,0.0568,0.0567,0.051,0.051,0,0,0,0.0447,0.0444,0.0475,0.0463,0.0489,0.0522,0.0529,0.0538,0.0549,0.0522,0.0541,0.0567,0.0567,0.051,0.051,0.0601,0,0,0,0.0443,0.0437,0.0473,0.0465,0.049,0.0531,0.0534,0.0549,0.0551,0.0541,0.0567,0.0567,0.0511,0.051,0.0599,0.0618,0,0,0,0.0431,0.0435,0.0452,0.0465,0.0509,0.0532,0.0545,0.0551,0.0561,0.0568,0.0566,0.0511,0.051,0.0598,0.0615,0.0582,0,0,0,0.0406,0.0468,0.0452,0.0524,0.0508,0.0562,0.0545,0.0594,0.0608,0.0567,0.0511,0.051,0.0598,0.0614,0.0582,0.0586,0,0,0,0.0476,0.0476,0.052,0.0508,0.057,0.0547,0.0591,0.0612,0.0569,0.05,0.05,0.06,0.0615,0.0582,0.0534,0,0,0,0,0.0536,0.0558,0.0578,0.0608,0.0628,0.0617,0.0625,0.0608,0.0584,0.0573,0.0556,0.0561,0.0539,0.0537,0.0506,0.0506,0.0506,0.0506,0.0506,0.0588,0.0604,0.0648,0.0652,0.0681,0.067,0.0665,0.0621,0.0605,0.0592,0.0605,0.0597,0.0598,0.0578,0.0579,0.0579,0.0579,0.058,0.058,0.0657,0.0671,0.0679,0.0728,0.0703,0.0741,0.0699,0.0688,0.063,0.0615,0.0589,0.0596,0.0588,0.0586,0.0585,0.0584,0.0583,0.0583,0.0583,0.0675,0.0675,0.0712,0.0761,0.0791,0.0797,0.0833,0.0784,0.0698,0.0685,0.0636,0.0621,0.0645,0.0676,0.0676,0.0676,0.0676,0.0676,0.0676,0.0665,0.0698,0.074,0.0787,0.0828,0.089,0.0887,0.0853,0.0769,0.0701,0.0702,0.0627,0.0624,0.0646,0.0675,0.0675,0.0675,0.0675,0.0675,0.0676,0.0708,0.0769,0.0803,0.087,0.0915,0.0928,0.086,0.0779,0.0688,0.068,0.068,0.063,0.0625,0.0646,0.0676,0.0676,0.0676,0,0.0669,0.0691,0.0763,0.082,0.0872,0.0909,0.0883,0.0843,0.0728,0.0727,0.0727,0.0722,0.0721,0.0667,0.0663,0.0689,0,0,0,0.0663,0.0684,0.0724,0.0799,0.0856,0.0864,0.0881,0.0844,0.077,0.0703,0.068,0.0679,0.0702,0.0673,0.0593,0.0589,0.0619,0,0]}]]